Change the Weather History Date:

Sunday, September 29, 2013

  Actual Average Record
Temperature  
Mean Temperature 71 °F -  
Max Temperature 82 °F 70 °F - ()
Min Temperature 60 °F 52 °F - ()
Cooling Degree Days 6    
Growing Degree Days 21 (Base 50)    
Moisture  
Dew Point 62 °F    
Average Humidity 74    
Maximum Humidity 94    
Minimum Humidity 45    
Precipitation  
Precipitation 0.00 in -13.12 in - ()
Sea Level Pressure  
Sea Level Pressure 29.90 in    
Wind  
Wind Speed 3 mph ()    
Max Wind Speed 7 mph    
Max Gust Speed -    
Visibility 6.4 miles    
Events      
T = Trace of Precipitation, MM = Missing Value Source: Averaged Metar Reports

Daily Weather History Graph

Daily Weather History Graph

Search for Another Location

Airport or City:

Trip Planner

Search our weather history database for the weather conditions in past years. The results will help you decide how hot, cold, wet, or windy it might be!

Date:

Astronomy

Sep. 29, 2013 Rise Set
Actual Time 6:35 AM CEST 6:26 PM CEST
Civil Twilight 6:08 AM CEST 6:53 PM CEST
Nautical Twilight 5:36 AM CEST 7:26 PM CEST
Astronomical Twilight 5:03 AM CEST 7:58 PM CEST
Moon 12:57 AM CEST (9/29) 3:14 PM CEST (9/29)
Length of Visible Light 12h 45m
Length of Day
11h 50m
Waning Crescent, 29% of the Moon is Illuminated
Sep 29
Waning Crescent
Oct 5
New
Oct 12
First Quarter
Oct 19
Full
Oct 27
Last Quarter

Hourly Weather History & Observations

Time (CEST) Temp. Heat Index Dew Point Humidity Pressure Visibility Wind Dir Wind Speed Gust Speed Precip Events Conditions
12:20 AM 64.4 °F - 60.8 °F 88% 29.95 in 6.2 mi SW 3.5 mph - N/A   Partly Cloudy
12:50 AM 66.2 °F - 60.8 °F 83% 29.95 in 6.2 mi SSW 3.5 mph - N/A   Mostly Cloudy
1:20 AM 66.2 °F - 60.8 °F 83% 29.95 in 6.2 mi South 4.6 mph - N/A   Mostly Cloudy
1:50 AM 66.2 °F - 60.8 °F 83% 29.95 in 6.2 mi South 4.6 mph - N/A   Mostly Cloudy
2:20 AM 66.2 °F - 60.8 °F 83% 29.95 in 6.2 mi Variable 2.3 mph - N/A   Mostly Cloudy
2:50 AM 64.4 °F - 60.8 °F 88% 29.95 in 6.2 mi SSE 4.6 mph - N/A   Mostly Cloudy
3:20 AM 64.4 °F - 60.8 °F 88% 29.95 in 6.2 mi Calm Calm - N/A   Mostly Cloudy
3:50 AM 66.2 °F - 60.8 °F 83% 29.95 in 6.2 mi SSW 3.5 mph - N/A   Mostly Cloudy
4:20 AM 64.4 °F - 60.8 °F 88% 29.95 in 6.2 mi South 3.5 mph - N/A   Partly Cloudy
4:50 AM 64.4 °F - 59.0 °F 83% 29.95 in 6.2 mi South 2.3 mph - N/A   Partly Cloudy
5:00 AM 63 °F - 59 °F 84% 29.95 in 9 mi SSE 2.2 mph - -   Scattered Clouds
5:20 AM 62.6 °F - 59.0 °F 88% 29.95 in 6.2 mi South 3.5 mph - N/A   Partly Cloudy
5:50 AM 62.6 °F - 59.0 °F 88% 29.95 in 6.2 mi SE 3.5 mph - N/A   Scattered Clouds
6:20 AM 64.4 °F - 59.0 °F 83% 29.95 in 6.2 mi South 3.5 mph - N/A   Scattered Clouds
6:50 AM 60.8 °F - 57.2 °F 88% 29.95 in 5.6 mi SSW 4.6 mph - N/A   Partly Cloudy
7:20 AM 62.6 °F - 59.0 °F 88% 29.95 in 6.2 mi SSE 5.8 mph - N/A   Partly Cloudy
7:50 AM 64.4 °F - 59.0 °F 83% 29.95 in 6.2 mi Calm Calm - N/A   Scattered Clouds
8:20 AM 66.2 °F - 59.0 °F 78% 29.95 in - South 2.3 mph - N/A   Clear
8:50 AM 69.8 °F - 59.0 °F 68% 29.95 in - SSE 4.6 mph - N/A   Clear
9:20 AM 71.6 °F - 59.0 °F 64% 29.92 in - SSE 4.6 mph - N/A   Clear
9:50 AM 75.2 °F - 59.0 °F 57% 29.95 in - Calm Calm - N/A   Clear
10:20 AM 75.2 °F - 62.6 °F 65% 29.95 in - Calm Calm - N/A   Clear
10:50 AM 78.8 °F - 60.8 °F 54% 29.92 in - Calm Calm - N/A   Clear
11:00 AM 81 °F - 64 °F 46% 29.94 in 19 mi Calm Calm - -  
11:20 AM 80.6 °F 81.8 °F 62.6 °F 54% 29.92 in - Variable 2.3 mph - N/A   Clear
11:50 AM 80.6 °F 81.5 °F 60.8 °F 51% 29.92 in - Variable 2.3 mph - N/A   Clear
12:20 PM 82.4 °F 82.9 °F 60.8 °F 48% 29.92 in 6.2 mi Variable 2.3 mph - N/A   Scattered Clouds
12:50 PM 82.4 °F 83.4 °F 62.6 °F 51% 29.89 in 6.2 mi West 5.8 mph - N/A   Scattered Clouds
1:20 PM 82.4 °F 82.5 °F 59.0 °F 45% 29.89 in 6.2 mi Calm Calm - N/A   Scattered Clouds
1:50 PM 82.4 °F 82.5 °F 59.0 °F 45% 29.89 in 6.2 mi Variable 2.3 mph - N/A   Scattered Clouds
2:20 PM 82.4 °F 83.9 °F 64.4 °F 54% 29.86 in 6.2 mi North 4.6 mph - N/A   Scattered Clouds
2:50 PM 82.4 °F 82.9 °F 60.8 °F 48% 29.86 in 6.2 mi Variable 2.3 mph - N/A   Mostly Cloudy
3:20 PM 78.8 °F - 60.8 °F 54% 29.86 in 6.2 mi West 4.6 mph - N/A   Mostly Cloudy
3:50 PM 77.0 °F - 62.6 °F 61% 29.86 in 6.2 mi West 5.8 mph - N/A   Mostly Cloudy
4:20 PM 75.2 °F - 62.6 °F 65% 29.86 in 6.2 mi West 6.9 mph - N/A   Mostly Cloudy
4:50 PM 77.0 °F - 66.2 °F 69% 29.86 in 6.2 mi West 6.9 mph - N/A   Mostly Cloudy
5:00 PM 76 °F - 65 °F 61% 29.86 in 16 mi West 4.5 mph - -   Scattered Clouds
5:20 PM 77.0 °F - 64.4 °F 65% 29.86 in 6.2 mi West 3.5 mph - N/A   Scattered Clouds
5:50 PM 75.2 °F - 66.2 °F 73% 29.83 in 6.2 mi NW 3.5 mph - N/A   Scattered Clouds
6:20 PM 73.4 °F - 66.2 °F 78% 29.83 in 6.2 mi Calm Calm - N/A   Scattered Clouds
6:50 PM 73.4 °F - 66.2 °F 78% 29.83 in 4.3 mi Calm Calm - N/A   Scattered Clouds
7:20 PM 69.8 °F - 66.2 °F 88% 29.83 in 5.0 mi Variable 2.3 mph - N/A   Scattered Clouds
7:50 PM 71.6 °F - 66.2 °F 83% 29.83 in 3.7 mi NNE 4.6 mph - N/A   Scattered Clouds
8:20 PM 69.8 °F - 64.4 °F 83% 29.83 in 3.7 mi Calm Calm - N/A   Scattered Clouds
8:50 PM 69.8 °F - 64.4 °F 83% 29.83 in 3.1 mi Calm Calm - N/A   Smoke
9:20 PM 68.0 °F - 64.4 °F 88% 29.83 in 3.1 mi SSE 3.5 mph - N/A   Smoke
9:50 PM 68.0 °F - 64.4 °F 88% 29.83 in - Calm Calm - N/A   Smoke
10:20 PM 66.2 °F - 62.6 °F 88% 29.83 in - Variable 2.3 mph - N/A   Smoke
10:50 PM 66.2 °F - 62.6 °F 88% 29.80 in - ESE 4.6 mph - N/A   Smoke
11:20 PM 66.2 °F - 62.6 °F 88% 29.80 in 1.9 mi WSW 4.6 mph - N/A   Smoke
11:50 PM 64.4 °F - 62.6 °F 94% 29.80 in - Calm Calm - N/A   Smoke